Location: Damada
(14.7329°N, 3.1761°W)
Time: 20:39:57
(UTC+00:00)

Centaur D-1AR AC-39 - Pass Details

Date: 18 February 2020
Orbit: 583 x 36198 km, 21.9° (Epoch: 03 April)

Event Time Altitude Azimuth Distance (km) Brightness Sun altitude
Rises 21:08:10 0° 285° (WNW) 6,738 7.6 -41.7°
Reaches altitude 10° 21:14:24 10° 289° (WNW) 3,821 6.1 -43.2°
Enters shadow 21:17:59 23° 297° (WNW) 2,061 4.5 -44.0°
